Date String (YYYY-MM-DD hh:mm:ss) UTC,Instrument flags,Ambient pressure (hPa),Sample flow (lpm),Bypass flow (lpm),Sample temperature (°C),Ambient temperature (°C),ASC tube jacket temperature (°C),LED temperature (°C),Box temperature (°C),Sample RH (%),Span deviation,Mass concentration (μg/m³),Mass concentration (μg/m³),Mass concentration (μg/m³)
DateTimeUTC,F1_M11,P_M11,Q1_M11,Q2_M11,T1_M11,T2_M11,T3_M11,T4_M11,T5_M11,U1_M11,ZSPAN_M11,X0_M11,X2_M11,X1_M11
2022-09-08 12:00:00,,0826.7,5.01,0.00,30.2,29.1,00.0,39.0,32.1,13.2,0002.1,0026.81,0019.22,0017.99
2022-09-08 12:01:00,,0826.7,4.98,0.00,30.3,29.2,00.0,39.0,32.1,13.0,0002.5,0026.33,0019.19,0018.02
2022-09-08 12:02:00,,0826.7,5.01,0.00,30.3,29.2,00.0,39.0,32.1,12.6,0002.5,0026.03,0019.13,0018.01
2022-09-08 12:03:00,,0826.7,5.00,0.00,30.3,29.2,00.0,39.0,32.2,12.8,0002.4,0025.91,0019.05,0017.95
2022-09-08 12:04:00,,0826.7,5.01,0.00,30.3,29.3,00.0,39.1,32.2,12.6,0002.0,0025.25,0018.97,0017.90
2022-09-08 12:05:00,,0826.7,4.99,0.00,30.4,29.3,00.0,39.1,32.2,12.5,0002.1,0024.66,0018.97,0017.88
2022-09-08 12:06:00,,0826.7,5.01,0.00,30.4,29.3,00.0,39.1,32.2,12.5,0002.8,0024.33,0018.95,0017.85
2022-09-08 12:07:00,,0826.7,4.99,0.00,30.4,29.4,00.0,39.1,32.3,12.5,0002.8,0023.70,0018.89,0017.81
2022-09-08 12:08:00,,0826.7,5.01,0.00,30.4,29.4,00.0,39.1,32.3,12.5,0002.9,0023.72,0018.87,0017.80
2022-09-08 12:09:00,,0826.7,4.99,0.00,30.4,28.3,00.0,39.1,32.2,12.5,0002.7,0023.50,0018.78,0017.76
2022-09-08 12:10:00,,0826.7,4.99,0.00,30.4,27.2,00.0,39.1,32.1,12.6,0002.6,0024.37,0018.79,0017.73
2022-09-08 12:11:00,,0826.7,5.01,0.00,30.3,27.2,00.0,39.0,32.1,12.7,0002.4,0024.04,0018.70,0017.68
2022-09-08 12:12:00,,0826.7,5.00,0.00,30.3,27.4,00.0,39.0,31.9,12.7,0002.2,0024.68,0018.64,0017.62
2022-09-08 12:13:00,,0826.7,5.00,0.00,30.2,27.8,00.0,39.0,31.9,12.8,0002.1,0025.54,0018.62,0017.59
2022-09-08 12:14:00,,0826.7,4.99,0.00,30.2,28.0,00.0,39.0,31.9,12.9,0002.5,0025.87,0018.63,0017.59
2022-09-08 12:15:00,,0826.7,4.99,0.00,30.2,28.3,00.0,39.0,31.9,13.5,0003.0,0025.87,0018.61,0017.58
2022-09-08 12:16:00,,0826.7,5.01,0.00,30.2,28.5,00.0,39.0,31.9,13.4,0002.9,0026.70,0018.57,0017.55
2022-09-08 12:17:00,,0826.6,5.00,0.00,30.2,28.6,00.0,39.0,32.0,13.4,0002.6,0027.96,0018.52,0017.52
2022-09-08 12:18:00,,0826.5,5.00,0.00,30.2,28.7,00.0,39.0,32.0,13.1,0002.4,0029.06,0018.51,0017.50
2022-09-08 12:19:00,,0826.5,5.00,0.00,30.2,28.8,00.0,39.0,32.0,13.0,0002.4,0030.06,0018.52,0017.49
2022-09-08 12:20:00,,0826.5,4.99,0.00,30.2,28.9,00.0,39.0,32.0,12.9,0002.5,0030.20,0018.57,0017.50
2022-09-08 12:21:00,,0826.7,5.01,0.00,30.2,29.0,00.0,39.0,32.0,12.6,0002.9,0029.64,0018.58,0017.48
2022-09-08 12:22:00,,0826.7,4.99,0.00,30.2,29.0,00.0,39.0,32.1,12.9,0003.1,0029.44,0018.56,0017.47
2022-09-08 12:23:00,,0826.7,4.99,0.00,30.3,29.1,00.0,39.0,32.1,12.8,0002.8,0028.90,0018.58,0017.48
2022-09-08 12:24:00,,0826.6,5.01,0.00,30.3,29.1,00.0,39.0,32.1,12.8,0002.8,0028.11,0018.58,0017.47
2022-09-08 12:25:00,,0826.5,4.99,0.00,30.3,29.2,00.0,39.0,32.1,12.7,0002.6,0028.80,0018.59,0017.46
2022-09-08 12:26:00,,0826.5,5.01,0.00,30.3,29.2,00.0,39.1,32.2,12.6,0002.6,0029.63,0018.60,0017.47
2022-09-08 12:27:00,,0826.5,4.99,0.00,30.3,29.3,00.0,39.1,32.2,12.2,0002.7,0028.58,0018.53,0017.46
2022-09-08 12:28:00,,0826.5,5.01,0.00,30.4,29.3,00.0,39.1,32.2,12.1,0002.6,0028.04,0018.49,0017.46
2022-09-08 12:29:00,,0826.5,4.99,0.00,30.4,29.3,00.0,39.1,32.3,12.0,0002.7,0027.12,0018.46,0017.45
2022-09-08 12:30:00,,0826.5,5.01,0.00,30.4,29.4,00.0,39.1,32.3,12.0,0002.7,0026.24,0018.38,0017.42
2022-09-08 12:31:00,,0826.5,5.01,0.00,30.4,29.4,00.0,39.2,32.3,11.9,0002.6,0026.67,0018.30,0017.37
2022-09-08 12:32:00,,0826.5,4.99,0.00,30.5,29.4,00.0,39.2,32.3,11.7,0002.4,0026.49,0018.22,0017.35
2022-09-08 12:33:00,,0826.5,5.00,0.00,30.5,29.4,00.0,39.2,32.3,11.8,0002.3,0026.61,0018.23,0017.33
2022-09-08 12:34:00,,0826.5,4.99,0.00,30.5,28.6,00.0,39.2,32.3,11.7,0002.6,0026.55,0018.26,0017.34
2022-09-08 12:35:00,,0826.5,5.00,0.00,30.4,27.4,00.0,39.2,32.1,11.9,0002.5,0026.47,0018.29,0017.40
2022-09-08 12:36:00,,0826.5,4.99,0.00,30.4,27.3,00.0,39.1,32.1,12.0,0002.4,0025.94,0018.32,0017.45
2022-09-08 12:37:00,,0826.5,5.01,0.00,30.3,27.5,00.0,39.1,32.0,12.2,0002.4,0025.19,0018.39,0017.49
2022-09-08 12:38:00,,0826.5,5.00,0.00,30.3,27.8,00.0,39.1,31.9,12.3,0002.3,0025.28,0018.48,0017.56
2022-09-08 12:39:00,,0826.5,5.00,0.00,30.2,28.1,00.0,39.0,31.9,12.6,0002.1,0024.46,0018.53,0017.60
2022-09-08 12:40:00,,0826.5,5.01,0.00,30.2,28.3,00.0,39.0,31.9,13.4,0001.5,0025.11,0018.60,0017.64
2022-09-08 12:41:00,,0826.5,5.00,0.00,30.2,28.5,00.0,39.0,32.0,13.9,0001.5,0025.76,0018.69,0017.66
2022-09-08 12:42:00,,0826.5,5.00,0.00,30.2,28.7,00.0,39.0,32.0,14.3,0001.8,0025.57,0018.73,0017.65
2022-09-08 12:43:00,,0826.5,5.01,0.00,30.2,28.8,00.0,39.0,32.0,14.3,0001.5,0026.13,0018.81,0017.65
2022-09-08 12:44:00,,0826.5,5.01,0.00,30.2,28.9,00.0,39.0,32.0,14.2,0001.2,0027.01,0018.85,0017.64
2022-09-08 12:45:00,,0826.5,5.00,0.00,30.3,29.0,00.0,39.0,32.1,13.6,0001.1,0027.32,0018.82,0017.60
2022-09-08 12:46:00,,0826.5,4.98,0.00,30.3,29.0,00.0,39.1,32.1,13.9,0001.2,0027.72,0018.81,0017.54
2022-09-08 12:47:00,,0826.5,5.01,0.00,30.3,29.1,00.0,39.1,32.1,13.9,0001.3,0027.72,0018.85,0017.50
2022-09-08 12:48:00,,0826.4,4.99,0.00,30.3,29.1,00.0,39.1,32.1,13.7,0001.1,0028.60,0018.81,0017.46
2022-09-08 12:49:00,,0826.5,5.01,0.00,30.3,29.2,00.0,39.1,32.2,13.7,0001.2,0029.06,0018.80,0017.42
2022-09-08 12:50:00,,0826.4,5.00,0.00,30.4,29.2,00.0,39.1,32.2,13.7,0001.2,0029.61,0018.82,0017.40
2022-09-08 12:51:00,,0826.5,5.00,0.00,30.4,29.3,00.0,39.1,32.2,13.8,0001.7,0028.54,0018.76,0017.38
2022-09-08 12:52:00,,0826.5,5.01,0.00,30.4,29.3,00.0,39.1,32.2,13.9,0001.9,0028.03,0018.68,0017.36
2022-09-08 12:53:00,,0826.5,4.99,0.00,30.4,29.3,00.0,39.1,32.2,14.1,0001.5,0028.19,0018.69,0017.37
2022-09-08 12:54:00,,0826.5,5.01,0.00,30.4,29.4,00.0,39.2,32.3,14.2,0001.5,0027.92,0018.70,0017.38
2022-09-08 12:55:00,,0826.5,5.01,0.00,30.5,29.4,00.0,39.2,32.3,14.2,0001.4,0027.71,0018.68,0017.40
2022-09-08 12:56:00,,0826.5,4.99,0.00,30.5,29.1,00.0,39.2,32.3,14.2,0001.6,0027.41,0018.70,0017.43
2022-09-08 12:57:00,,0826.5,5.01,0.00,30.5,27.7,00.0,39.2,32.2,13.9,0001.7,0027.15,0018.69,0017.45
2022-09-08 12:58:00,,0826.5,5.00,0.00,30.4,27.3,00.0,39.1,32.1,13.9,0001.6,0027.54,0018.70,0017.46
2022-09-08 12:59:00,,0826.5,5.01,0.00,30.4,27.4,00.0,39.1,32.0,14.1,0001.7,0026.86,0018.70,0017.47
